Simultaneous Nadir Overpasses (SNOs) Predictions

Prediction of SNOs between GOES-16 and TERRA Satellite Orbit:

Table of predicted SNOs for the next 14.0 days since TLE Epoch: 3/7/2020
Index Date Time (GOES-16) GOES-16 Lat,Lon TERRA Lat,Lon Distance(km) Time Diff (sec)
1 03/07/2020 15:27:11 -0.03, -75.20 -0.30, -74.01 135.08 80
2 03/08/2020 03:48:35 0.03, -75.18 -0.82, -79.20 456.76 80
3 03/09/2020 15:14:59 -0.02, -75.19 -0.92, -71.05 471.15 80
4 03/10/2020 03:36:23 0.03, -75.18 -0.20, -76.24 120.53 80
5 03/12/2020 03:21:31 0.02, -75.18 0.43, -73.27 216.31 80
6 03/12/2020 15:42:46 -0.03, -75.19 0.67, -78.43 368.54 80
7 03/14/2020 15:30:34 -0.03, -75.19 0.04, -75.46 31.32 80
8 03/16/2020 15:21:02 -0.04, -75.20 -0.59, -72.50 306.37 80
9 03/17/2020 03:42:26 0.04, -75.19 -0.52, -77.69 284.68 80
10 03/19/2020 03:27:34 0.05, -75.21 0.12, -74.73 53.88 80




NCC Satellite Simultaneous Nadir Overpasses (SNOs) Prediction Service
